Owatonna, Minnesota, United States (55060)
Lat: 44.08N, Lon: 93.23W
Wx Zone: MNZ085
Local Info
Past Weather Observations for Today

NOTE: This archive is for the closest National Weather Service station to Owatonna. Information may differ from the station used for current weather conditions.

Click here for Long-term Archive

Time Weather Temperature Dewpoint Humidity Pressure Winds Precip Visibility
10:15
Overcast
Light Snow
12°F / -11°C 9°F / -13°C 85% 30.15 in
(1021 mb)
NNE 17.3 mph
(NNE 28 kph)
-
09:55
Overcast
Light Snow
12°F / -11°C 9°F / -13°C 85% 30.15 in
(1021 mb)
NNE 21.9 mph
(NNE 35 kph)
-
09:35
Overcast
Light Snow
12°F / -11°C 9°F / -13°C 85% 30.12 in
(1020 mb)
NE 19.6 mph
(NE 32 kph)
-
09:15
Overcast
Light Snow
12°F / -11°C 9°F / -13°C 85% 30.12 in
(1020 mb)
NNE 21.9 mph
(NNE 35 kph)
-
08:55
Overcast
Light Snow
14°F / -10°C 9°F / -13°C 79% 30.12 in
(1020 mb)
NE 19.6 mph
(NE 32 kph)
-
08:35
Overcast
Light Snow
14°F / -10°C 9°F / -13°C 79% 30.12 in
(1020 mb)
NE 16.1 mph
(NE 26 kph)
-
08:15
Overcast
Light Snow
14°F / -10°C 10°F / -12°C 85% 30.12 in
(1020 mb)
NE 18.4 mph
(NE 30 kph)
-
07:55
Overcast
Light Snow
14°F / -10°C 10°F / -12°C 85% 30.12 in
(1020 mb)
NE 15 mph
(NE 24 kph)
-
07:35
Overcast
Light Snow
14°F / -10°C 10°F / -12°C 85% 30.09 in
(1019 mb)
NE 18.4 mph
(NE 30 kph)
-
07:15
Overcast
Light Snow
16°F / -9°C 10°F / -12°C 79% 30.09 in
(1019 mb)
NE 17.3 mph
(NE 28 kph)
-
06:55
Overcast
Light Snow
16°F / -9°C 10°F / -12°C 79% 30.09 in
(1019 mb)
NE 17.3 mph
(NE 28 kph)
-
06:35
Overcast
16°F / -9°C 10°F / -12°C 79% 30.09 in
(1019 mb)
NE 16.1 mph
(NE 26 kph)
-
06:15
Overcast
16°F / -9°C 10°F / -12°C 79% 30.06 in
(1018 mb)
NE 16.1 mph
(NE 26 kph)
-
05:55
Overcast
16°F / -9°C 10°F / -12°C 79% 30.06 in
(1018 mb)
NE 20.7 mph
(NE 33 kph)
-
05:35
Overcast
16°F / -9°C 10°F / -12°C 79% 30.06 in
(1018 mb)
NE 23 mph
(NE 37 kph)
-
05:15
Overcast
16°F / -9°C 12°F / -11°C 86% 30.06 in
(1018 mb)
NE 18.4 mph
(NE 30 kph)
-
04:55
Overcast
Light Snow
18°F / -8°C 12°F / -11°C 79% 30.06 in
(1018 mb)
NE 21.9 mph
(NE 35 kph)
-
04:35
Overcast
18°F / -8°C 12°F / -11°C 79% 30.06 in
(1018 mb)
NE 19.6 mph
(NE 32 kph)
-
04:15
Overcast
Light Snow
18°F / -8°C 12°F / -11°C 79% 30.06 in
(1018 mb)
NE 17.3 mph
(NE 28 kph)
-
03:55
Overcast
Light Snow
18°F / -8°C 12°F / -11°C 79% 30.06 in
(1018 mb)
NE 20.7 mph
(NE 33 kph)
-
03:35
Overcast
18°F / -8°C 12°F / -11°C 79% 30.06 in
(1018 mb)
NE 20.7 mph
(NE 33 kph)
-
03:15
Overcast
Light Snow
18°F / -8°C 14°F / -10°C 86% 30.06 in
(1018 mb)
NE 18.4 mph
(NE 30 kph)
-
02:55
Light Snow
18°F / -8°C 16°F / -9°C 93% 30.09 in
(1019 mb)
NE 16.1 mph
(NE 26 kph)
-
02:35
Overcast
18°F / -8°C 16°F / -9°C 93% 30.09 in
(1019 mb)
NE 18.4 mph
(NE 30 kph)
-
02:15
Overcast
19°F / -7°C 16°F / -9°C 86% 30.09 in
(1019 mb)
NE 17.3 mph
(NE 28 kph)
-
01:55
Overcast
Light Snow
19°F / -7°C 16°F / -9°C 86% 30.09 in
(1019 mb)
NE 17.3 mph
(NE 28 kph)
-
01:35
Overcast
Light Snow
19°F / -7°C 16°F / -9°C 86% 30.09 in
(1019 mb)
NE 12.7 mph
(NE 20 kph)
- 2 1/2SM
01:15
Overcast
19°F / -7°C 18°F / -8°C 93% 30.09 in
(1019 mb)
NE 19.6 mph
(NE 32 kph)
-
00:55
Overcast
Light Snow
21°F / -6°C 18°F / -8°C 86% 30.09 in
(1019 mb)
NE 16.1 mph
(NE 26 kph)
-
00:35
Overcast
Light Snow
21°F / -6°C 18°F / -8°C 86% 30.09 in
(1019 mb)
NE 16.1 mph
(NE 26 kph)
-
00:15
Overcast
Light Snow
21°F / -6°C 18°F / -8°C 86% 30.09 in
(1019 mb)
NE 13.8 mph
(NE 22 kph)
-
Time Weather Temperature Dewpoint Humidity Pressure Winds Precip Visibility


Weather for websites

WeatherForYou.com, LLC is not responsible for any damages or problems caused by this service. Current weather conditions are obtained from the closest station including government and personal stations which may have varying degrees of accuracy. Weather forecasts are derived from the NOAA NDFD. Like all things, this site belongs to Jesus Christ... He just trusts me to maintain it. If you have any questions or comments email webmaster@weatherforyou.com

Copyright © 2015, WeatherForYou.com LLC. All rights reserved.